| time (UTC) | temp F | wind direction | speed MPH | gust MPH | rain 1hr in | rain 24hr in | rain mn in | humidity % | barometer mb |
| 20260509184148 | 85 | 51 | 0.0 | 0.0 | 0.00 | 0.00 | 0.00 | 41 | 1005.4 |
| 20260509181148 | 84 | 336 | 0.0 | 0.0 | 0.00 | 0.00 | 0.00 | 41 | 1005.8 |
| 20260509174149 | 83 | 59 | 0.0 | 0.0 | 0.00 | 0.00 | 0.00 | 46 | 1006.2 |
| 20260509164148 | 79 | 312 | 0.0 | 0.0 | 0.00 | 0.00 | 0.00 | 53 | 1006.7 |
| 20260509161148 | 77 | 327 | 2.0 | 0.0 | 0.00 | 0.00 | 0.00 | 65 | 1006.8 |
| 20260509154222 | 75 | 258 | 1.0 | 0.0 | 0.00 | 0.00 | 0.00 | 67 | 1006.5 |
| 20260509154149 | 75 | 258 | 1.0 | 0.0 | 0.00 | 0.00 | 0.00 | 67 | 1006.5 |
| 20260509131424 | 62 | 315 | 0.0 | 0.0 | 0.00 | 0.00 | 0.00 | 99 | 1006.2 |
| 20260509131152 | 62 | 315 | 0.0 | 0.0 | 0.00 | 0.00 | 0.00 | 99 | 1006.2 |
| 20260509121302 | 54 | 314 | 0.0 | 0.0 | 0.00 | 0.00 | 0.00 | 98 | 1005.7 |
| 20260509121148 | 54 | 314 | 0.0 | 0.0 | 0.00 | 0.00 | 0.00 | 98 | 1005.7 |
| 20260509114150 | 54 | 314 | 0.0 | 0.0 | 0.00 | 0.00 | 0.00 | 98 | 1005.3 |
| 20260509111242 | 54 | 314 | 0.0 | 0.0 | 0.00 | 0.00 | 0.00 | 98 | 1005.0 |
| 20260509111149 | 54 | 314 | 0.0 | 0.0 | 0.00 | 0.00 | 0.00 | 98 | 1005.0 |
| 20260509104223 | 55 | 314 | 0.0 | 0.0 | 0.00 | 0.00 | 0.00 | 98 | 1004.9 |
| 20260509104148 | 55 | 314 | 0.0 | 0.0 | 0.00 | 0.00 | 0.00 | 98 | 1004.9 |
| 20260509101230 | 56 | 314 | 0.0 | 0.0 | 0.00 | 0.00 | 0.00 | 98 | 1005.3 |
| 20260509101148 | 56 | 314 | 0.0 | 0.0 | 0.00 | 0.00 | 0.00 | 98 | 1005.3 |
| 20260509091149 | 56 | 314 | 0.0 | 0.0 | 0.00 | 0.00 | 0.00 | 98 | 1005.4 |
| 20260509084148 | 56 | 314 | 0.0 | 0.0 | 0.00 | 0.00 | 0.00 | 98 | 1005.2 |
| 20260509081148 | 57 | 318 | 0.0 | 0.0 | 0.00 | 0.00 | 0.00 | 98 | 1005.5 |
| 20260509074149 | 57 | 317 | 0.0 | 0.0 | 0.00 | 0.00 | 0.00 | 98 | 1005.8 |
| 20260509071147 | 58 | 317 | 0.0 | 0.0 | 0.00 | 0.00 | 0.00 | 98 | 1005.9 |
| 20260509064148 | 59 | 318 | 0.0 | 0.0 | 0.00 | 0.00 | 0.00 | 98 | 1006.1 |
| 20260509051147 | 61 | 198 | 0.0 | 0.0 | 0.00 | 0.00 | 0.00 | 98 | 1005.9 |
| 20260509044148 | 60 | 211 | 0.0 | 0.0 | 0.00 | 0.00 | 0.00 | 98 | 1005.8 |
| 20260509034241 | 61 | 332 | 3.0 | 0.0 | 0.00 | 0.00 | 0.00 | 98 | 1005.5 |
| 20260509034148 | 61 | 332 | 3.0 | 0.0 | 0.00 | 0.00 | 0.00 | 98 | 1005.5 |
| 20260509024226 | 61 | 197 | 0.0 | 0.0 | 0.00 | 0.00 | 0.00 | 97 | 1004.1 |
| 20260509024149 | 61 | 197 | 0.0 | 0.0 | 0.00 | 0.00 | 0.00 | 97 | 1004.1 |
| 20260509014147 | 62 | 274 | 0.0 | 0.0 | 0.00 | 0.00 | 0.00 | 97 | 1003.5 |
| 20260509004148 | 64 | 61 | 0.0 | 0.0 | 0.00 | 0.00 | 0.00 | 96 | 1002.4 |
| 20260509001148 | 64 | 319 | 0.0 | 0.0 | 0.00 | 0.00 | 0.00 | 96 | 1001.6 |
| 20260508234147 | 63 | 40 | 0.0 | 0.0 | 0.00 | 0.00 | 0.00 | 94 | 1002.0 |
| 20260508231148 | 78 | 162 | 1.0 | 0.0 | 0.00 | 0.00 | 0.00 | 56 | 1002.8 |
| 20260508224147 | 81 | 158 | 0.0 | 0.0 | 0.00 | 0.00 | 0.00 | 51 | 1000.8 |
| 20260508221149 | 84 | 9 | 0.0 | 0.0 | 0.00 | 0.00 | 0.00 | 49 | 1000.7 |
| 20260508214147 | 88 | 37 | 0.0 | 0.0 | 0.00 | 0.00 | 0.00 | 46 | 1001.5 |
| 20260508211149 | 85 | 43 | 1.0 | 0.0 | 0.00 | 0.00 | 0.00 | 47 | 1002.2 |
| 20260508201148 | 85 | 277 | 2.0 | 0.0 | 0.00 | 0.00 | 0.00 | 49 | 1003.1 |
| 20260508191151 | 84 | 61 | 5.0 | 0.0 | 0.00 | 0.00 | 0.00 | 51 | 1003.8 |